This is the latest recevied weather packets stored in our database for station/object N0KWA. If no packets are shown the sender has not sent any weather packets the latest 10 day(s).
| Time | Temp. | Humidity | Pressure | Rain* | Wind** | Luminosity | Snow |
|---|---|---|---|---|---|---|---|
| 1778106789 | 27.22° C | 89% | 1012.5 hPa | 0 mm | - | 19 W/m² | - |
| 1778106486 | 27.22° C | 90% | 1012.5 hPa | 0 mm | - | 19 W/m² | - |
| 1778106182 | 27.22° C | 90% | 1012.6 hPa | 0 mm | - | 16 W/m² | - |
| 1778105875 | 27.22° C | 90% | 1012.8 hPa | 0 mm | - | 16 W/m² | - |
| 1778105573 | 27.22° C | 90% | 1012.8 hPa | 0 mm | - | 16 W/m² | - |
| 1778105270 | 27.22° C | 90% | 1012.8 hPa | 0 mm | - | 9 W/m² | - |
| 1778104970 | 27.22° C | 88% | 1013.1 hPa | 0 mm | - | 11 W/m² | - |
| 1778104667 | 27.22° C | 91% | 1013.1 hPa | 0 mm | - | 19 W/m² | - |
| 1778104362 | 27.22° C | 91% | 1013.4 hPa | 0 mm | - | 27 W/m² | - |
| 1778104053 | 27.22° C | 90% | 1013.2 hPa | 0 mm | - | 17 W/m² | - |
| 1778103750 | 27.22° C | 89% | 1013.3 hPa | 0 mm | - | 10 W/m² | - |
| 1778103448 | 27.22° C | 89% | 1013.5 hPa | 0 mm | - | 6 W/m² | - |
| 1778103145 | 27.78° C | 88% | 1013.2 hPa | 0 mm | - | 6 W/m² | - |
| 1778102843 | 27.78° C | 87% | 1013.6 hPa | 0 mm | - | 12 W/m² | - |
| 1778102538 | 27.78° C | 87% | 1013.5 hPa | 0 mm | - | 11 W/m² | - |
| 1778102234 | 27.78° C | 86% | 1013.5 hPa | 0 mm | - | 19 W/m² | - |
| 1778101930 | 27.78° C | 85% | 1013.3 hPa | 0 mm | - | 19 W/m² | - |
| 1778101627 | 28.33° C | 84% | 1013.5 hPa | 0 mm | - | 22 W/m² | - |
| 1778101325 | 28.33° C | 84% | 1013.5 hPa | 0 mm | - | 19 W/m² | - |
| 1778101022 | 28.33° C | 85% | 1013.4 hPa | 0 mm | - | 30 W/m² | - |
| 1778100722 | 27.78° C | 85% | 1013.4 hPa | 0 mm | - | 80 W/m² | - |
| 1778100420 | 27.78° C | 84% | 1013.7 hPa | 0 mm | - | 28 W/m² | - |
| 1778100116 | 28.33° C | 84% | 1013.6 hPa | 0 mm | - | 25 W/m² | - |
| 1778099815 | 28.33° C | 85% | 1013.6 hPa | 0 mm | - | 30 W/m² | - |
| 1778099512 | 28.33° C | 85% | 1013.8 hPa | 0 mm | - | 21 W/m² | - |
* Rain latest hour (hover to see other rain measurements)
** Current wind speed in m/s (hover to see current wind gust speed)